Retour au catalogue

USA 418

ActifMilitaireVLEO
NORAD 61039·PAYLOAD·🇺🇸 United States

Lancé Sep 6, 2024 depuis Vandenberg Space Force Base

Loading…

Prochains Passages (prochaines 24 heures)

TLE

PériméSource: Mike McCants

Époque: Sep 5, 2026, 20:48 UTC

1 61039U 24160U   26248.86725177 0.00000000  00000-0  00000-0 0    00
2 61039  70.0140 154.6169 0004000  79.3701 280.6298 14.96713008    00

Suivez USA 418 en temps réel avec AllMySat

Download on the App Store